Regional Weather Roundup
Issued by NWS Huntsville, AL

Home | Current Version | Previous Version | Text Only | Print | Product List | Glossary On
Versions: 1 2 3 4 5 6 7 8 9 10 11 12 13 14 15 16 17 18 19 20 21 22 23 24 25 26 27 28 29 30 31 32 33 34 35 36 37 38 39 40 41 42 43 44 45 46 47 48 49 50
000
ASUS44 KHUN 231310
RWRHUN

WEATHER ROUNDUP FOR THE TENNESSEE VALLEY
NATIONAL WEATHER SERVICE HUNTSVILLE AL
800 AM CDT SAT MAY 23 2015

ALZ001>004-231400-
NORTHWEST ALABAMA

CITY           SKY/WX    TMP DP  RH WIND       PRES   REMARKS
COURTLAND HCN    N/A     59 N/A N/A CALM        N/A
RUSSELLVILLE     N/A     55 N/A N/A MISG        N/A
SHOALS AIRPORT SUNNY     62  54  74 SE5       30.34R
SHOALS TVA RES   N/A     59 N/A N/A MISG        N/A
$$

ALZ005>007-016-231400-
NORTH CENTRAL ALABAMA

CITY           SKY/WX    TMP DP  RH WIND       PRES   REMARKS
DECATUR AP     PTSUNNY   61  53  75 E5        30.34R
HUNTSVILLE AP  PTSUNNY   65  51  60 E9        30.34R
MERIDIANVILLE  PTSUNNY   59  46  63 CALM      30.35R
REDSTONE ARSN  PTSUNNY   63  53  71 VRB2      30.33R
VINEMONT AP    FAIR      64  50  60 E6        30.35R
$$

ALZ008>010-231400-
NORTHEAST ALABAMA

CITY           SKY/WX    TMP DP  RH WIND       PRES   REMARKS
ALBERTVILLE    SUNNY     63  54  72 E6        30.34S
FORT PAYNE     SUNNY     59  48  67 CALM      30.36R
SCOTTSBORO HCN   N/A     55 N/A N/A MISG        N/A
VALLEY HEAD      N/A     55 N/A N/A MISG        N/A
$$

TNZ076-096-097-231400-
SOUTHEASTERN MIDDLE TENNESSEE

CITY           SKY/WX    TMP DP  RH WIND       PRES   REMARKS
TULLAHOMA      SUNNY     57  46  67 CALM      30.36S
WINCHESTER     SUNNY     64  50  59 E5        30.36R
$$

...SURROUNDING SITES...

CITY           SKY/WX    TMP DP  RH WIND       PRES   REMARKS
ATLANTA        MOSUNNY   66  55  67 VRB7      30.38R
ANNISTON       SUNNY     63  52  67 NE9       30.35R
BIRMINGHAM     PTSUNNY   66  50  56 E6        30.34R
CHATTANOOGA    MOSUNNY   61  51  70 CALM      30.39R
CORINTH        FAIR      63  54  72 CALM      30.32R
DALTON         SUNNY     55  52  88 CALM      30.40R
GADSDEN        SUNNY    N/A N/A N/A NE10      30.35R
GOLDEN TRNGL   SUNNY     64  52  63 SE12      30.28R
HALEYVILLE     FAIR      62  51  67 CALM      30.34S
JACKSON TN     PTSUNNY   62  52  69 E6        30.32R
LEWISBURG      FAIR      54  49  83 CALM      30.34S
MEMPHIS        CLOUDY    66  51  58 E7        30.28S
NASHVILLE      CLOUDY    63  54  72 CALM      30.37R
OXFORD MS      FAIR      66  50  55 SE6       30.31S
ROME           SUNNY     58  52  80 NE5       30.38R
SAVANNAH       SUNNY     61  32  33 CALM      30.33R
TUPELO         SUNNY     64  52  64 E3        30.30R
TUSCALOOSA     SUNNY     67  54  63 NE3       30.31R
$$

...GULF COAST WEATHER...

CITY           SKY/WX    TMP DP  RH WIND       PRES   REMARKS
GULFPORT       SUNNY     72  59  63 E7        30.22R
PASCAGOULA     SUNNY     72  61  68 E5        30.23R
MOBILE         MOSUNNY   72  59  63 NE6       30.25R
GULF SHORES    SUNNY     71  61  70 NE3       30.23R
PENSACOLA      SUNNY     76  59  55 NE9       30.23R
DESTIN         SUNNY     75  63  66 E10       30.25R
PANAMA CITY    SUNNY     73  67  81 E7        30.25R
APPALACHICOLA  MOSUNNY   81  69  67 E12       30.24R
$$



USA.gov is the U.S. government's official web portal to all federal, state and local government web resources and services.